Theta_e
299 299 299 299 298 298 298 298 298 299 299 300 301 302 302 302 303 303 303 303 304 304 303 303 303 304 304 303 302 302 303 303 302 301 302 301 301 301 300 299 296 296 296 296 296 295 296 296 296 297 298 299 299 296 296 295 295 295 294 293 294 294
299 299 298 297 298 297 296 296 296 298 299 299 300 300 300 300 301 302 302 302 303 303 301 301 303 302 302 302 301 301 301 302 302 301 298 301 299 299 298 297 297 296 295 294 294 294 294 294 294 294 295 294 296 295 295 294 294 294 294 293 291 292
298 297 295 295 293 294 294 295 297 298 297 299 299 300 300 300 301 301 302 301 301 299 300 300 299 299 300 298 299 300 300 300 299 299 299 294 295 295 297 298 298 297 296 295 294 294 293 293 293 293 293 293 294 293 294 293 293 294 293 292 290 290
295 294 292 292 293 292 292 293 294 295 297 299 299 299 299 300 300 301 301 300 301 299 299 298 296 298 297 297 296 296 296 296 296 295 292 294 294 295 297 297 297 296 296 295 295 294 293 293 293 292 292 293 293 293 294 293 293 293 292 291 291 289
294 293 293 293 293 293 291 291 294 296 295 296 297 298 299 298 299 297 298 299 298 298 297 296 295 296 294 294 294 294 293 293 292 291 294 294 293 293 296 296 296 295 295 295 294 294 293 293 292 291 292 292 293 293 292 293 293 293 292 291 291 289
291 291 292 292 293 292 293 293 292 294 296 297 297 297 297 296 296 295 296 297 297 296 293 294 294 293 294 294 294 293 292 291 291 290 292 293 293 293 293 295 295 294 294 294 293 292 292 292 292 291 291 292 292 293 292 292 292 293 292 292 291 289
294 295 294 294 293 292 292 293 295 295 296 296 296 298 296 296 294 295 296 296 295 293 292 293 292 293 293 293 292 292 291 290 290 290 291 291 291 291 292 293 293 293 292 292 292 291 291 291 291 291 291 291 292 292 292 291 291 291 291 292 291 289
295 294 292 293 293 294 294 294 295 296 296 297 296 297 295 295 293 296 297 296 295 294 292 293 292 293 293 293 291 291 290 290 290 291 290 290 291 290 291 292 292 292 292 292 291 291 291 291 291 291 291 291 291 291 291 290 290 290 290 290 289 289
297 298 296 294 293 293 294 295 295 295 295 295 294 295 294 294 294 295 296 295 293 294 294 293 293 293 292 292 291 290 290 290 290 290 290 289 290 290 289 289 291 290 291 291 290 290 290 290 290 290 290 290 290 291 290 290 290 289 289 289 288 288
298 296 296 295 296 296 295 295 295 295 295 295 294 293 293 295 293 294 294 293 293 294 295 294 292 291 291 291 290 290 290 290 290 290 289 288 289 289 289 289 289 289 289 289 289 289 289 288 288 289 289 289 290 290 289 289 288 288 288 288 287 287
298 297 297 297 296 296 297 297 296 294 293 294 294 292 293 293 293 293 294 293 293 295 296 293 291 291 290 290 290 290 290 290 290 289 289 288 288 288 288 288 289 288 288 288 288 287 287 287 287 288 288 288 288 289 289 288 288 288 287 286 286 285
297 296 297 297 297 298 298 297 297 296 296 295 294 292 293 289 292 293 293 293 294 295 295 292 291 291 290 290 291 290 290 290 289 289 288 288 288 287 287 286 287 287 287 287 286 286 286 286 287 287 288 289 288 288 288 288 287 287 286 285 284 283
295 295 296 297 298 298 299 299 298 297 296 295 294 294 293 291 292 292 293 294 295 295 293 291 291 291 290 291 290 289 289 289 289 288 287 287 286 287 286 286 286 286 287 287 286 286 286 286 286 287 290 290 290 288 287 287 287 286 285 284 283 282
295 295 296 297 297 298 298 299 299 298 297 296 295 295 292 290 291 292 293 293 293 292 292 292 291 290 291 290 290 289 288 288 288 287 287 286 285 285 285 285 286 287 287 287 286 286 286 286 287 289 290 290 290 288 286 286 286 285 284 284 283 282
296 296 296 295 296 297 297 298 297 298 299 298 298 293 289 291 291 292 292 292 292 291 291 290 290 290 290 290 289 288 287 287 287 287 286 285 285 284 284 285 285 286 286 286 286 285 285 285 287 289 289 290 290 289 287 285 285 285 284 283 282 281
297 297 295 295 296 296 297 295 296 298 298 298 296 291 291 291 291 291 292 291 290 290 289 289 289 289 289 288 287 287 287 287 287 286 286 285 284 284 284 285 285 286 285 285 285 285 285 285 286 289 289 289 290 290 288 285 285 284 284 282 282 281
296 295 295 296 295 293 293 294 294 294 294 295 294 292 291 290 290 290 290 290 289 288 289 289 289 289 288 287 287 287 287 287 286 285 284 284 284 284 284 285 285 285 285 285 285 285 284 284 287 289 289 290 290 290 289 285 284 284 283 282 281 281
294 294 294 293 292 292 291 293 293 291 294 291 291 291 289 289 289 289 288 289 288 288 288 288 288 288 287 286 286 286 286 285 285 284 283 282 282 282 283 285 285 285 284 284 284 284 284 283 287 289 289 289 289 290 285 284 284 283 282 281 280 281
291 292 290 291 292 292 293 291 288 289 290 289 289 287 287 287 288 289 289 288 288 287 287 288 288 287 286 285 285 285 285 284 283 282 282 282 281 282 283 284 284 284 284 284 284 284 284 283 286 288 288 289 290 288 283 283 283 282 281 280 280 280
289 290 290 290 290 291 289 288 287 287 288 288 286 285 286 286 288 289 288 288 287 286 286 286 287 287 285 284 285 285 284 283 283 282 282 282 281 281 282 283 284 284 284 284 283 284 283 283 285 288 288 288 289 287 284 283 282 281 280 280 279 279
289 288 288 289 290 292 288 286 286 287 289 288 286 284 286 287 288 287 287 287 285 285 285 285 286 286 285 284 284 284 283 282 282 280 280 281 281 281 281 283 283 283 283 283 283 284 283 283 284 287 288 288 289 287 284 283 281 280 279 279 278 279
286 288 289 289 290 288 285 284 285 286 288 288 284 285 287 288 288 286 283 283 284 284 284 284 285 284 284 284 283 282 282 280 279 279 280 279 280 280 281 283 283 282 282 282 282 283 283 283 284 286 288 288 289 287 283 282 280 279 279 278 278 278
289 288 287 288 287 285 284 283 285 287 286 285 284 286 287 285 283 282 282 282 281 281 282 281 283 283 281 282 282 281 279 279 279 279 279 279 280 281 281 281 282 281 281 281 282 282 282 283 283 285 288 288 288 286 284 281 281 280 279 278 278 279
288 288 288 286 284 283 283 283 285 286 285 284 285 286 282 281 281 281 281 280 280 280 280 279 279 280 280 279 280 279 277 276 278 279 279 280 281 281 281 281 281 280 280 280 281 281 281 283 284 284 287 288 288 286 285 282 281 281 279 279 279 279
287 287 286 286 283 282 282 281 283 284 284 283 285 282 280 281 280 280 279 279 279 278 277 277 277 279 279 279 279 278 277 277 278 278 280 281 281 281 280 280 279 279 279 279 279 280 281 283 284 285 285 287 287 286 285 284 283 283 281 279 279 279
286 286 286 284 283 281 281 281 283 284 283 283 281 279 280 279 279 278 278 277 276 276 276 276 277 278 278 278 278 278 277 277 278 279 280 280 280 280 279 279 279 278 278 277 278 279 280 282 283 284 285 285 287 286 286 285 285 284 281 281 280 281
284 284 285 285 281 280 280 279 281 282 282 280 279 279 279 278 278 278 277 276 275 276 275 276 277 277 276 276 278 277 277 277 277 277 278 280 280 279 278 278 278 278 277 277 278 279 280 281 282 283 284 285 285 286 286 285 285 285 285 282 282 282
282 283 283 284 282 280 279 280 279 281 281 279 279 278 277 277 277 276 276 275 275 275 276 276 275 275 275 275 276 277 277 277 277 277 277 279 279 279 278 278 278 277 277 277 278 278 279 280 282 282 284 285 285 286 287 287 286 285 284 283 283 284
283 283 283 282 282 277 278 276 278 279 278 277 277 277 276 276 276 276 275 275 276 275 276 276 276 275 276 275 275 276 276 277 277 277 277 278 278 278 278 278 277 277 277 277 277 278 278 279 281 281 282 284 284 284 284 283 283 284 284 283 284 284
281 281 281 281 282 277 276 275 276 276 275 275 276 275 275 276 276 276 275 275 276 277 277 277 278 278 277 277 278 277 276 276 277 278 278 278 278 278 278 278 277 277 277 276 277 277 278 278 279 280 282 283 283 282 282 282 281 281 281 281 281 280
281 281 280 280 279 275 274 274 273 273 274 275 275 275 276 276 277 276 275 276 278 278 279 279 279 279 279 279 279 278 277 279 279 280 280 280 281 280 279 278 278 278 278 277 277 277 277 277 278 279 283 281 283 281 280 279 279 279 279 279 280 277
279 279 279 279 275 273 273 272 272 272 273 273 275 276 278 278 278 276 277 278 279 279 279 279 279 279 279 279 279 279 279 281 282 281 280 280 282 283 282 281 279 279 278 277 277 278 278 278 279 282 284 284 283 283 282 281 281 280 279 281 281 278
279 277 277 277 273 272 271 272 271 273 273 274 276 279 280 279 279 279 279 279 280 280 280 279 279 279 279 279 279 279 278 279 281 283 283 283 282 283 283 282 282 282 280 278 277 279 281 282 282 283 284 284 284 283 283 282 282 282 282 281 277 274
280 278 278 276 273 273 271 272 272 274 274 275 277 280 281 281 280 280 280 280 281 281 280 279 279 279 278 278 278 278 278 278 277 279 283 284 284 284 284 284 283 282 281 281 280 279 279 282 283 284 284 284 284 283 283 283 283 283 282 281 279 273
280 278 276 274 273 274 274 274 273 272 274 278 281 282 282 282 282 281 281 281 281 280 279 279 278 278 278 277 277 277 277 277 277 276 277 280 284 284 284 284 283 283 283 282 282 282 281 282 283 283 283 283 283 283 283 283 284 283 283 281 275 272
278 277 275 273 273 273 275 277 276 274 274 275 281 282 282 282 282 282 281 280 280 279 278 278 278 277 277 277 276 277 277 277 277 277 277 277 278 279 281 283 283 283 283 283 283 282 283 283 283 283 283 283 283 283 283 283 282 283 283 278 272 272
277 276 274 274 274 274 276 277 275 273 272 274 278 281 282 281 280 280 278 276 277 279 278 278 278 277 277 276 276 276 276 276 276 277 276 276 276 276 276 277 279 281 282 281 282 283 283 283 283 282 282 282 283 283 283 282 279 278 277 275 269 270
276 275 273 273 274 275 275 274 272 271 271 273 275 279 280 280 280 279 278 278 277 278 278 277 277 277 277 276 276 276 276 276 276 275 275 275 275 275 275 276 277 278 280 282 282 282 282 282 282 282 282 282 282 282 282 277 276 276 275 272 270 269
Wind_Speed
7 8 9 8 7 7 8 6 6 6 6 7 8 11 11 10 9 8 8 9 9 9 11 11 11 10 9 8 7 7 9 10 8 9 8 7 7 8 7 7 8 8 8 7 7 6 7 6 6 6 6 8 9 8 7 6 7 7 8 7 8 8
7 7 7 7 7 7 6 5 5 7 8 7 8 7 6 7 10 10 11 11 9 9 8 9 9 9 9 8 8 9 9 9 8 8 6 8 7 7 7 8 9 9 9 8 7 7 7 7 6 6 5 5 6 7 7 7 8 9 9 8 6 6
6 6 5 5 4 3 3 4 6 6 5 7 7 10 10 10 10 9 11 8 10 9 11 10 9 9 8 7 8 9 9 7 7 7 7 5 7 7 8 8 8 9 9 9 9 9 8 8 7 6 6 6 6 5 7 6 7 8 7 7 6 5
4 5 4 2 2 4 4 4 4 5 6 7 7 8 10 10 10 10 9 8 9 10 10 9 7 8 8 8 8 9 9 8 8 7 5 7 7 7 9 9 7 7 8 9 9 9 8 8 8 7 7 7 7 7 7 7 8 8 7 7 8 7
3 4 4 5 5 5 5 5 5 6 6 7 8 9 12 7 7 5 5 7 8 11 9 8 9 8 9 10 9 9 8 7 7 6 8 7 6 7 8 9 8 8 8 8 8 8 8 8 7 6 7 7 9 9 8 8 9 10 9 9 9 9
3 2 4 5 5 6 7 7 6 6 7 9 8 11 12 7 7 6 6 7 9 7 6 9 8 9 10 11 9 9 7 7 7 6 7 7 7 8 7 7 8 8 8 8 8 8 8 8 7 7 7 9 9 9 9 8 8 9 10 11 10 10
7 7 5 6 7 6 6 8 9 9 11 9 11 12 9 8 6 6 8 8 10 8 8 9 8 10 11 11 8 9 8 7 7 6 7 7 7 6 6 6 6 7 8 8 8 8 8 8 8 9 8 8 8 8 8 8 8 8 9 10 10 10
7 7 7 7 7 9 9 9 10 10 11 13 12 11 8 8 6 9 10 9 9 9 9 10 8 11 12 10 9 9 8 8 8 8 7 7 8 6 6 7 7 7 8 8 8 8 9 8 8 9 9 9 8 7 6 6 7 7 7 8 8 10
10 10 7 6 6 8 8 8 9 10 10 11 9 8 8 9 8 9 9 9 8 8 10 10 11 10 9 9 8 7 7 8 8 8 8 7 8 8 7 6 7 7 8 8 8 8 8 8 8 8 8 7 7 8 8 8 7 7 7 7 8 9
9 9 9 8 9 8 7 7 9 9 8 11 8 8 9 9 9 8 8 8 9 10 12 11 9 8 9 7 6 8 8 8 8 8 7 7 8 8 8 8 8 7 7 8 8 8 7 7 7 7 7 7 8 8 8 8 8 7 7 6 7 8
9 9 9 10 9 10 11 10 9 7 8 9 9 8 12 10 9 11 10 9 10 13 13 8 7 7 8 8 7 8 8 8 8 7 7 7 8 7 8 7 7 8 7 6 7 7 7 8 8 7 8 8 8 8 9 9 9 9 8 7 7 7
10 10 10 10 11 11 11 11 10 10 9 10 8 8 10 6 10 9 10 12 14 13 10 8 7 8 8 8 10 9 8 8 8 8 8 8 8 7 7 6 7 7 8 8 7 7 7 7 6 9 13 10 8 8 7 7 8 8 8 8 8 8
10 10 11 12 12 12 12 11 10 9 8 9 9 10 10 8 9 9 10 13 13 13 9 8 9 8 9 10 8 8 8 8 7 8 7 7 7 8 7 7 8 7 7 8 8 8 7 7 7 12 12 13 12 9 8 9 8 8 8 9 10 10
9 10 11 11 11 11 11 11 11 9 9 10 10 12 6 7 9 11 12 13 10 8 9 10 9 9 10 8 10 8 7 7 7 8 8 7 8 7 7 8 8 8 8 7 8 8 8 7 8 12 13 13 13 10 9 8 7 8 9 9 9 8
9 9 9 7 9 10 12 11 10 11 12 11 12 6 5 8 10 11 11 11 10 10 9 7 8 9 9 9 7 6 6 7 7 8 7 9 8 7 8 8 8 8 8 8 9 8 8 7 10 12 14 14 14 13 10 6 7 8 8 9 9 9
8 7 7 7 9 9 10 9 9 12 11 11 9 5 8 8 10 10 11 10 9 9 7 7 8 9 8 6 6 7 8 8 9 8 7 6 6 8 8 7 8 8 8 9 9 8 7 7 10 15 16 15 15 14 10 6 7 7 8 9 10 9
8 8 8 8 7 7 6 9 8 9 9 10 9 7 7 7 8 8 9 9 8 6 8 8 8 8 7 7 7 8 8 9 7 7 7 8 9 9 9 9 8 7 7 7 7 6 6 6 10 14 14 14 15 15 11 6 6 6 7 9 10 11
9 9 9 8 7 7 6 8 8 6 10 6 7 8 6 7 7 8 7 9 8 8 7 8 8 7 6 7 7 8 8 7 8 9 7 7 6 5 5 5 6 7 7 7 7 6 6 5 11 12 13 13 14 14 8 7 7 7 7 8 9 9
8 9 8 9 9 9 9 7 5 6 7 6 6 5 5 5 8 9 9 9 8 8 7 7 8 7 7 7 8 8 8 7 7 6 6 7 7 7 7 7 7 6 7 7 7 7 6 5 10 13 13 13 15 10 7 8 7 7 7 7 8 8
9 10 8 9 11 10 8 7 6 5 6 7 5 4 5 5 10 9 7 8 6 6 6 6 7 7 7 7 8 7 6 6 5 7 7 9 8 8 7 6 6 6 6 8 8 7 7 6 8 13 13 13 15 10 8 7 7 7 7 6 7 7
9 10 10 10 12 12 7 7 6 5 8 7 6 5 6 9 9 7 8 7 5 5 6 7 7 8 8 7 7 7 8 8 8 6 6 6 6 6 6 6 6 5 5 6 6 8 7 6 8 14 15 15 17 11 7 7 7 8 7 7 6 5
6 9 10 10 13 9 8 6 5 7 8 8 5 6 10 10 9 6 4 4 5 5 5 6 7 7 7 8 6 6 7 5 5 6 6 5 6 6 5 5 5 6 5 5 6 6 6 6 6 10 15 15 15 12 7 6 8 9 9 8 9 8
9 10 11 10 11 9 6 5 6 9 8 7 6 11 10 6 4 4 4 3 3 3 3 3 4 6 4 5 6 5 4 5 6 6 6 6 5 5 5 5 4 5 4 4 4 4 4 5 5 7 12 13 11 14 10 6 6 7 8 7 8 8
11 12 12 7 7 7 6 6 8 9 8 7 11 11 4 3 3 2 2 2 2 1 1 1 1 2 3 4 5 6 5 3 5 6 6 6 6 7 6 5 4 5 4 3 3 4 4 4 7 5 9 12 13 13 12 7 7 9 9 8 7 7
13 13 13 11 7 5 5 5 9 10 8 10 10 5 3 2 2 2 2 2 2 2 2 2 3 4 3 5 5 7 6 5 6 5 6 7 7 7 7 6 6 6 5 4 2 2 3 4 4 8 7 11 14 14 12 13 9 15 10 10 9 8
12 13 11 9 7 5 4 4 8 9 9 11 5 2 0 1 3 3 3 3 3 3 3 4 4 4 4 5 6 7 8 7 7 7 6 7 7 7 6 5 5 5 5 5 3 2 2 2 3 6 8 9 13 13 13 14 15 14 7 8 9 8
11 13 15 12 7 5 4 3 6 9 9 6 0 1 1 2 3 4 4 3 3 4 4 4 4 4 4 4 6 7 6 7 7 7 5 7 6 6 6 6 5 5 5 5 5 3 3 3 4 4 7 10 11 13 14 14 15 14 13 8 6 9
9 10 12 15 7 6 4 4 4 9 8 2 1 1 1 2 3 3 4 4 4 4 5 6 5 4 4 4 3 4 4 6 6 7 6 6 6 6 7 7 6 6 5 5 4 4 4 4 4 5 6 7 9 10 14 14 13 13 12 11 10 13
10 11 11 13 10 5 5 4 5 7 5 3 2 1 2 3 3 3 3 4 4 4 5 7 6 5 5 4 4 4 4 5 5 6 6 6 7 7 6 7 7 6 6 6 5 5 5 5 5 6 6 6 7 7 9 11 11 15 15 11 12 14
10 11 10 11 10 5 5 4 5 5 3 2 1 2 3 3 3 4 4 4 3 4 5 6 7 7 6 5 6 6 5 4 5 6 7 7 8 9 8 7 7 7 7 7 6 6 6 6 6 7 7 8 8 8 8 8 9 9 9 10 9 9
12 11 10 12 7 4 4 5 5 4 4 2 1 3 4 4 3 3 4 4 4 4 4 5 5 6 6 6 5 3 3 6 6 6 4 3 4 6 8 8 6 6 6 7 8 9 7 6 7 6 7 9 11 10 10 9 8 8 8 11 15 11
9 12 12 11 6 4 3 4 4 4 3 2 2 3 5 4 5 4 4 4 4 5 5 5 6 6 6 6 6 6 6 6 6 3 5 4 6 8 6 8 6 7 7 7 5 6 10 10 7 12 17 17 16 14 13 12 13 12 12 16 19 12
8 8 11 10 5 5 3 3 3 3 3 3 3 3 4 5 6 5 4 5 5 6 6 6 7 6 6 6 7 6 7 7 6 9 8 7 8 9 11 9 12 14 11 10 8 4 6 11 15 17 17 18 17 16 16 16 16 17 20 19 12 7
11 9 11 8 5 6 4 2 1 1 3 3 3 3 5 5 6 6 6 5 5 6 6 6 6 7 7 6 6 7 7 8 8 7 9 9 9 10 11 12 14 14 13 12 10 9 7 12 17 17 18 18 18 16 16 17 18 19 19 18 13 8
10 8 7 5 6 6 5 3 2 0 2 3 3 4 6 7 6 6 7 7 7 6 6 6 7 6 7 8 8 7 7 8 8 10 8 8 11 12 11 12 13 13 13 13 13 13 13 13 14 17 17 17 17 17 17 18 19 19 19 15 7 7
8 7 5 4 5 5 5 5 2 1 1 4 3 4 5 5 5 6 6 8 8 9 8 8 8 8 7 7 7 7 7 6 7 8 9 10 8 8 9 10 11 11 12 12 13 14 16 18 18 17 17 17 17 18 19 17 14 17 18 11 7 7
9 7 5 4 4 4 5 5 3 2 2 3 5 4 4 3 2 3 3 5 6 6 7 7 7 7 8 7 7 7 7 7 6 7 8 8 10 9 8 6 6 7 9 9 10 14 17 17 18 18 17 18 17 18 19 18 11 10 8 5 4 6
7 7 5 4 5 5 5 4 2 3 2 1 3 3 3 2 3 4 4 5 6 6 6 6 6 6 7 8 7 6 7 7 7 7 7 6 7 8 9 7 5 5 9 13 13 17 17 18 17 17 17 17 18 19 20 11 9 8 7 6 6 6
Wind_Direction
240 233 231 225 221 222 222 218 211 216 220 221 218 219 218 214 213 215 217 208 208 206 207 208 212 215 217 217 212 205 213 215 208 205 205 196 193 192 186 188 188 189 195 201 210 210 213 212 209 201 194 188 189 193 189 182 176 188 200 203 196 194
257 245 234 225 221 220 218 212 209 220 221 221 228 239 233 224 220 214 215 212 208 209 205 213 211 211 212 209 204 212 216 218 214 213 202 200 189 195 188 190 188 186 190 196 199 203 207 208 211 200 197 195 197 185 184 188 181 189 196 194 193 178
263 265 258 252 258 243 211 210 218 225 223 229 226 228 229 226 226 217 222 207 214 204 209 208 204 210 207 211 211 215 217 214 211 213 212 189 200 184 193 195 192 189 190 189 195 199 199 200 201 199 192 196 196 190 191 184 188 191 195 180 184 178
274 276 271 270 252 249 238 232 227 239 234 233 235 238 236 228 227 222 223 217 213 210 212 207 203 203 203 209 214 218 215 212 209 206 205 211 208 188 192 193 189 190 189 190 195 197 196 198 198 191 188 191 196 199 193 187 186 189 184 178 183 177
246 245 234 229 222 228 229 235 221 226 229 231 233 231 239 230 240 247 249 241 231 223 214 203 205 199 206 209 214 216 211 210 208 195 202 210 210 207 194 187 185 187 188 193 195 191 192 194 194 190 188 197 198 198 197 191 186 185 179 183 187 180
291 277 252 246 242 230 226 224 223 226 229 230 232 235 237 225 224 223 229 236 243 246 231 219 209 201 207 212 212 211 207 202 203 192 202 204 199 203 208 188 184 184 188 193 192 190 189 189 190 187 195 198 198 198 197 193 195 190 185 188 185 177
289 262 245 239 238 239 230 224 223 221 227 222 226 234 229 222 210 210 223 224 232 233 232 234 220 213 212 214 204 209 197 201 198 194 198 192 200 206 193 198 183 184 187 192 190 188 191 192 188 190 197 202 202 201 196 192 192 191 190 189 185 179
277 282 258 245 237 229 227 226 226 229 229 226 219 226 221 220 204 214 218 221 222 226 227 231 227 226 219 211 206 200 194 194 196 195 199 185 194 196 199 189 189 188 190 192 192 191 195 191 191 195 198 199 196 194 193 190 188 189 188 187 178 175
269 260 269 254 245 234 231 228 231 232 234 240 229 222 218 217 210 218 218 218 218 226 229 226 227 230 229 219 210 193 191 193 193 191 196 187 192 189 191 198 191 195 189 193 189 193 191 191 193 198 198 193 189 189 189 188 187 185 186 187 178 173
275 285 279 280 270 266 260 244 238 236 232 241 233 221 218 220 214 218 219 216 220 226 231 227 222 226 228 224 212 204 198 192 192 194 187 179 191 191 191 190 192 194 192 191 190 191 186 186 192 196 193 188 187 188 191 185 181 180 182 181 178 174
261 266 271 271 278 281 280 279 269 248 243 241 236 222 227 216 201 209 209 214 222 228 231 222 217 217 219 214 211 208 202 194 192 189 186 187 193 190 192 187 186 186 196 191 188 185 182 186 193 191 189 187 189 190 188 184 181 178 177 172 172 177
278 279 278 281 278 277 277 275 270 262 252 251 237 227 234 192 218 214 216 213 216 226 225 214 213 211 210 210 211 208 197 190 188 186 191 194 191 188 182 181 189 193 192 188 189 185 186 194 195 194 190 186 183 184 184 177 179 176 173 169 168 174
265 270 277 277 279 276 274 273 269 267 260 256 248 236 228 196 217 214 218 226 229 221 203 203 215 204 210 213 207 202 195 190 182 185 191 189 185 185 179 178 189 193 192 192 188 189 195 198 198 192 187 186 181 179 179 178 177 173 171 173 172 176
264 266 267 272 276 277 277 276 273 271 263 253 248 246 220 198 216 219 222 228 231 229 213 209 203 203 215 205 210 200 193 182 184 189 188 183 185 185 175 185 189 189 190 191 193 195 197 201 196 186 186 180 174 172 177 176 173 175 177 177 176 173
279 281 283 281 278 277 273 270 277 276 270 269 256 245 201 214 219 223 229 229 224 221 218 213 205 210 210 211 202 189 182 187 190 193 185 191 188 172 181 189 183 192 189 188 191 198 198 202 195 187 187 189 181 172 172 175 178 176 179 176 174 166
309 303 290 279 278 277 278 283 272 271 274 273 282 246 226 216 226 220 231 229 226 222 213 207 209 213 211 195 187 184 187 187 196 191 190 180 172 181 186 185 188 187 189 189 190 194 196 195 191 191 192 191 187 180 171 182 180 180 177 177 173 166
315 318 317 311 297 285 290 288 272 277 285 280 279 260 243 230 230 230 231 232 230 218 213 209 208 211 201 190 186 187 191 190 185 183 184 180 183 183 185 184 187 191 188 189 187 186 187 191 185 188 187 186 186 184 172 175 172 173 177 175 173 170
307 303 300 296 300 292 275 268 281 286 272 281 256 260 242 237 231 235 226 229 222 217 212 204 208 206 194 187 187 189 191 185 182 184 180 178 184 184 173 183 182 181 182 182 178 175 185 183 183 184 185 185 190 182 170 175 176 176 175 172 170 168
291 295 298 302 301 299 293 286 282 271 278 277 260 247 247 232 237 237 228 227 217 213 206 203 201 201 192 187 187 192 187 178 181 182 167 171 177 175 179 181 178 179 176 175 179 177 180 179 184 178 177 180 188 166 169 166 169 168 169 169 162 164
303 303 302 301 299 290 291 290 282 275 272 268 263 247 247 233 240 238 234 235 222 210 200 199 194 193 190 186 192 188 182 180 176 174 172 173 174 179 181 170 168 174 177 176 180 180 175 183 185 183 183 182 192 181 169 163 157 161 156 151 152 153
296 293 303 304 302 300 306 288 274 269 267 264 259 245 248 243 247 241 233 234 214 205 196 190 189 188 185 187 187 178 177 180 178 168 166 168 163 168 159 160 161 165 170 175 170 169 170 176 186 186 187 187 194 177 168 161 155 152 156 148 143 142
295 303 301 298 293 300 298 283 272 263 263 265 252 248 245 246 245 249 243 229 212 206 195 190 187 185 180 184 177 176 175 154 139 150 154 155 150 149 154 156 158 159 163 160 162 172 174 172 183 187 190 189 191 162 158 153 155 159 154 151 146 141
311 298 292 291 295 301 301 291 278 270 265 264 258 248 244 251 258 238 231 216 204 202 204 199 189 180 180 168 163 150 136 143 144 141 141 140 135 133 138 141 142 136 135 148 152 153 160 167 172 187 185 189 172 154 147 157 150 142 140 143 147 150
314 314 312 309 299 299 308 306 286 275 276 269 255 256 274 247 221 201 175 168 172 163 143 144 96 123 133 118 119 119 116 109 125 138 135 132 136 137 134 129 128 125 120 115 128 145 159 176 170 170 183 185 163 151 142 142 149 149 140 141 151 152
318 316 311 315 316 309 310 312 286 284 284 269 268 291 267 181 137 122 116 105 99 92 96 96 113 109 112 122 127 128 127 129 126 128 130 133 133 133 134 133 132 130 125 112 98 117 155 165 169 163 167 169 158 151 149 144 142 154 146 149 156 160
310 311 307 308 307 312 312 301 282 283 283 273 300 306 21 96 103 109 106 102 99 95 93 104 104 106 118 128 128 131 135 140 138 134 140 138 137 137 133 133 129 126 129 124 114 94 82 118 143 160 153 154 150 147 149 148 149 153 155 155 153 143
299 304 307 307 307 298 299 290 278 284 274 277 310 257 152 107 106 109 113 110 109 104 101 94 99 111 116 130 136 135 140 138 139 132 141 135 135 138 136 140 138 136 136 127 128 114 98 100 118 120 139 141 146 143 144 145 146 145 131 116 122 130
294 297 299 303 304 295 298 296 271 272 266 273 264 228 144 126 116 117 126 122 119 121 116 105 88 89 95 97 99 124 140 142 141 137 142 137 138 139 140 141 138 134 131 129 121 117 108 110 106 114 118 123 122 126 129 125 121 119 114 120 127 130
301 298 300 299 305 304 295 301 286 264 270 235 217 172 140 135 132 128 128 128 126 120 119 119 119 112 102 101 98 109 123 131 135 138 137 140 140 139 142 141 142 140 137 138 134 126 120 113 116 116 116 116 117 112 112 113 114 116 115 116 123 121
291 292 294 292 296 301 296 298 286 286 272 246 199 156 134 137 150 149 151 143 136 131 130 126 130 126 122 123 128 128 126 133 145 145 154 161 158 153 153 152 153 154 152 146 143 138 125 122 127 137 136 133 123 121 118 118 122 125 127 123 118 114
297 290 288 284 286 289 298 292 293 301 285 263 214 163 143 146 139 139 144 149 137 137 134 130 128 126 123 119 109 101 134 156 154 145 128 119 151 158 155 153 149 150 151 149 152 146 141 142 150 157 143 135 136 134 135 131 130 126 122 129 124 113
277 285 286 281 282 277 272 282 287 292 278 248 216 179 157 155 146 152 164 159 150 146 138 130 126 127 127 126 121 112 81 67 85 101 129 133 123 118 127 140 150 153 146 148 166 164 159 165 155 146 143 140 137 132 130 130 132 133 132 137 132 128
281 278 279 278 278 272 259 254 271 279 274 236 217 195 180 164 162 162 165 165 169 163 151 146 143 144 137 134 133 127 121 110 81 87 106 121 127 133 136 138 137 144 151 151 152 149 127 139 144 150 146 143 140 136 139 140 140 140 142 137 122 110
299 285 279 281 268 262 260 239 255 280 286 261 237 206 183 183 176 171 172 172 171 160 156 148 144 140 137 135 134 133 133 122 114 84 74 100 131 132 135 141 144 149 153 156 147 138 132 148 153 153 152 150 150 147 147 147 148 150 151 152 138 125
292 291 282 272 265 265 261 236 224 45 355 307 259 230 206 197 189 182 175 175 168 161 149 146 149 148 147 145 143 143 141 136 131 121 114 81 84 96 111 123 133 143 150 153 154 151 150 151 155 155 154 155 157 157 158 158 158 159 157 146 135 145
284 280 276 271 264 262 264 254 236 77 44 339 296 248 237 222 203 188 183 176 174 164 161 159 158 155 153 150 149 149 142 139 132 132 127 123 118 95 87 93 111 126 135 140 146 150 152 152 153 155 157 157 157 160 162 160 162 165 167 159 154 156
286 282 264 250 256 257 256 258 306 357 41 8 313 269 239 239 198 174 183 177 170 170 164 160 157 158 152 153 150 146 142 137 136 130 130 134 132 127 126 125 114 112 121 130 136 144 147 152 154 154 157 158 157 156 156 154 153 162 169 150 156 162
279 274 262 246 240 239 240 240 287 306 326 323 314 283 223 216 191 177 174 179 181 170 167 163 163 161 157 153 147 143 137 137 136 131 127 118 115 122 124 115 113 120 129 128 136 143 147 149 152 152 153 156 158 157 156 156 167 167 169 162 170 166